Regional Weather Roundup
Issued by NWS

Home | Current Version | Previous Version | Text Only | Print | Product List | Glossary On
Versions: 1 2 3 4 5 6 7 8 9 10 11 12 13 14 15 16 17 18 19 20 21 22 23 24 25 26 27 28 29 30 31 32 33 34 35 36 37 38 39 40 41 42 43 44 45 46 47 48 49 50
000
ASUS46 KSTO 231915
RWRCA

NORTHERN AND CENTRAL CA REGIONAL WEATHER ROUNDUP
NATIONAL WEATHER SERVICE SACRAMENTO CA
1200 PM PDT SAT SEP 23 2017

NOTE: FAIR INDICATES FEW OR NO CLOUDS BELOW 12,000 FEET WITH NO
SIGNIFICANT WEATHER AND/OR OBSTRUCTIONS TO VISIBILITY.

CAZ001-003-232000-
NORTHWEST AREA

CITY           SKY/WX    TMP DP  RH WIND       PRES   REMARKS
CRESCENT CITY  SUNNY     62  51  67 N12G18    30.05S
UKIAH          SUNNY     73  26  17 VRB6      29.95F
$$

CAZ006-505>513-232000-
BAY AREA

CITY           SKY/WX    TMP DP  RH WIND       PRES   REMARKS
SANTA ROSA     SUNNY     77  31  18 VRB3      29.91F
SAN RAFAEL     N/A       72  MM  MM MISG
NAPA           SUNNY     80  26  13 NW15G21   29.91F
CONCORD        SUNNY     77  32  19 N9        29.92S
OAKLAND CITY   N/A      MM  MM  MM MISG
OAKLAND        SUNNY     73  43  33 NW13      29.92F
SAN FRAN CITY  N/A       72  MM  24 MISG
SAN FRAN ARPT  SUNNY     72  44  36 NE8       29.92F
LIVERMORE      SUNNY     73  36  25 W7        29.91F
HAYWARD        SUNNY     70  39  32 SW6       29.92F
REDWOOD CITY   N/A       72  MM  29 MISG
MOFFETT ARPT   SUNNY     73  38  27 N8        29.93F
SAN JOSE ARPT  SUNNY     74  37  26 VRB6      29.92F
$$
CAZ034-037-514>518-232000-
CENTRAL COAST

CITY           SKY/WX    TMP DP  RH WIND       PRES   REMARKS
WATSONVILLE    SUNNY     70  50  49 S6        29.92F
SALINAS        SUNNY     71  44  37 VRB6      29.92F
MONTEREY       SUNNY     68  51  54 NW6       29.93F
SAN LUIS OBISP SUNNY     78  38  23 N8        29.90S
SANTA MARIA    SUNNY     74  45  35 W12       29.89F
$$
CAZ015-016-232000-
NORTHERN SACRAMENTO VALLEY

CITY           SKY/WX    TMP DP  RH WIND       PRES   REMARKS
REDDING        SUNNY     74  29  19 N17       29.96F
RED BLUFF      SUNNY     74  30  19 N14       29.97F
OROVILLE       SUNNY     77  33  20 N13G20    29.92F
$$
CAZ016>018-232000-
SOUTHERN SACRAMENTO VALLEY

CITY           SKY/WX    TMP DP  RH WIND       PRES   REMARKS
AUBURN         SUNNY     72 -27   1 W8        29.92S
BEALE AFB      SUNNY     76  34  21 NW15G21   29.88S
LINCOLN        FAIR      75  27  16 NW10G16   29.89S
MARYSVILLE     SUNNY     75  35  23 NW16G23   29.91S
SAC INTL ARPT  SUNNY     74  31  20 N17G26    29.90F
MATHER AIRPORT SUNNY     68  32  26 N12       29.89F
DOWNTOWN SAC   N/A       74  MM  MM MISG
SAC EXEC ARPT  SUNNY     75  33  21 N15G24    29.90F
VACAVILLE      SUNNY     77  29  17 N18G30    29.92S
TRAVIS AFB     SUNNY     75  30  18 N20G25    29.89F
$$
CAZ019>021-232000-
SAN JOAQUIN VALLEY

CITY           SKY/WX    TMP DP  RH WIND       PRES   REMARKS
STOCKTON       SUNNY     76  34  21 NW15      29.89F
MODESTO        SUNNY     73  34  23 NW12      29.90S
MERCED         SUNNY     70  34  26 NW12      29.90S
LEMOORE        SUNNY     75  34  22 NW17      29.91S
FRESNO         SUNNY     68  44  42 S7        29.91S
HANFORD        SUNNY     71  38  29 VRB7      29.91F
PORTERVILLE      N/A     70  43  37 VRB6      29.92F
BAKERSFIELD    SUNNY     72  40  31 NW9       29.91F
$$
CAZ011-012-071-232000-
NORTHERN MOUNTAINS

CITY           SKY/WX    TMP DP  RH WIND       PRES   REMARKS
YREKA          CLOUDY    59  32  36 CALM      30.08F
MOUNT SHASTA   PTSUNNY   58  34  40 VRB5      30.06F
ALTURAS        SUNNY     53  30  41 CALM      30.08F
$$
CAZ011-012-071-232000-
SIERRA NEVADA MTNS

CITY           SKY/WX    TMP DP  RH WIND       PRES   REMARKS
BLUE CANYON    SUNNY     52  23  32 NE9G17    30.01S
TRUCKEE        SUNNY     46  28  49 MISG      30.05S
TAHOE VLY ARPT SUNNY     45  23  42 NE12G18   30.04R
MAMMOTH LAKES  FAIR      48  18  30 CALM      30.03F
$$




USA.gov is the U.S. government's official web portal to all federal, state and local government web resources and services.